STARLINK-1649 (46552 NORAD) Tracking and Keplerian Element Data

This shows tracking and keplerian element data for the satellite.

Feedback or suggestion? Click here.




ElementValue
Catalog46552
NameSTARLINK-1649
Epoch Orbit181
Epoch Day336.91667824
Epoch Year2020
RAAN165.2523
Inclination52.9986
Eccentricity0.0002094
Argument of Perigee21.2881
Mean Anonmoly10.4154
Mean Motion15.62739711
Decay Rate0.00050877
L11 46552U 20070W 20336.91667824 .00050877 00000-0 55825-3 0 9993
L22 46552 52.9986 165.2523 0002094 21.2881 10.4154 15.62739711 1811

Live tracking and technical data element details for STARLINK-1649 (NORAD 46552). STARLINK-1649 can be tracked NOW for your location showing map with azimuth and elevation plus other details from your city location.

Track the satellite on the map from your city or location and see movement details for azimuth, elevation, latitude, longitude, range, height, and movement on the map or in text.







IsCatalogInMostPopularTable: catalog: 46552, numindb: 13
Update: records affected: 1



GetName: 46552 STARLINK-1649

Hit Count: updated at: Thu, 03 Dec 2020 07:48:15 GMT